Location: Tr�vern
(48.0333°N, 4.6000°W)
Time: 02:42:25
(UTC+00:00)

Cosmos 1656 Rocket - Pass Details

Date: 14 July 2020
Orbit: 797 x 845 km, 71.1° (Epoch: 04 August)

Event Time Altitude Azimuth Distance (km) Brightness Sun altitude
Rises 00:29:28 0° 326° (NW) 3,312 7.7 -20.3°
Reaches altitude 10° 00:32:01 10° 319° (NW) 2,380 6.7 -20.3°
Maximum altitude 00:36:57 37° 253° (WSW) 1,229 4.4 -20.3°
Enters shadow 00:38:15 32° 223° (SW) 1,340 4.3 -20.3°
